Year,Month,Day,Hour,Minute,Value (Times are PST for temperature in C)
2018,08,10,00,00,20.20
2018,08,10,00,01,20.20
2018,08,10,00,02,20.20
2018,08,10,00,03,20.30
2018,08,10,00,04,20.30
2018,08,10,00,05,20.40
2018,08,10,00,06,20.50
2018,08,10,00,07,20.60
2018,08,10,00,08,20.60
2018,08,10,00,09,20.70
2018,08,10,00,10,20.70
2018,08,10,00,11,20.80
2018,08,10,00,12,20.80
2018,08,10,00,13,20.80
2018,08,10,00,14,20.80
2018,08,10,00,15,20.90
2018,08,10,00,16,20.90
2018,08,10,00,17,20.90
2018,08,10,00,18,20.90
2018,08,10,00,19,20.90
2018,08,10,00,20,20.90
2018,08,10,00,21,20.90
2018,08,10,00,22,20.90
2018,08,10,00,23,20.90
2018,08,10,00,24,20.90
2018,08,10,00,25,20.90
2018,08,10,00,26,20.90
2018,08,10,00,27,20.90
2018,08,10,00,28,20.90
2018,08,10,00,29,20.80
2018,08,10,00,30,20.80
2018,08,10,00,31,20.80
2018,08,10,00,32,20.80
2018,08,10,00,33,20.80
2018,08,10,00,34,20.70
2018,08,10,00,35,20.70
2018,08,10,00,36,20.70
2018,08,10,00,37,20.70
2018,08,10,00,38,20.60
2018,08,10,00,39,20.60
2018,08,10,00,40,20.60
2018,08,10,00,41,20.60
2018,08,10,00,42,20.60
2018,08,10,00,43,20.60
2018,08,10,00,44,20.60
2018,08,10,00,45,20.50
2018,08,10,00,46,20.50
2018,08,10,00,47,20.40
2018,08,10,00,48,20.40
2018,08,10,00,49,20.40
2018,08,10,00,50,20.40
2018,08,10,00,51,20.30
2018,08,10,00,52,20.30
2018,08,10,00,53,20.30
2018,08,10,00,54,20.20
2018,08,10,00,55,20.20
2018,08,10,00,56,20.30
2018,08,10,00,57,20.30
2018,08,10,00,58,20.20
2018,08,10,00,59,20.20
2018,08,10,01,00,20.20
2018,08,10,01,01,20.20
2018,08,10,01,02,20.30
2018,08,10,01,03,20.30
2018,08,10,01,04,20.30
2018,08,10,01,05,20.30
2018,08,10,01,06,20.30
2018,08,10,01,07,20.30
2018,08,10,01,08,20.30
2018,08,10,01,09,20.20
2018,08,10,01,10,20.20
2018,08,10,01,11,20.20
2018,08,10,01,12,20.20
2018,08,10,01,13,20.20
2018,08,10,01,14,20.20
2018,08,10,01,15,20.10
2018,08,10,01,16,20.10
2018,08,10,01,17,20.10
2018,08,10,01,18,20.10
2018,08,10,01,19,20.10
2018,08,10,01,20,20.10
2018,08,10,01,21,20.10
2018,08,10,01,22,20.10
2018,08,10,01,23,20.10
2018,08,10,01,24,20.10
2018,08,10,01,25,20.10
2018,08,10,01,26,20.10
2018,08,10,01,27,20.10
2018,08,10,01,28,20.10
2018,08,10,01,29,20.10
2018,08,10,01,30,20.10
2018,08,10,01,31,20.10
2018,08,10,01,32,20.10
2018,08,10,01,33,20.10
2018,08,10,01,34,20.10
2018,08,10,01,35,20.10
2018,08,10,01,36,20.10
2018,08,10,01,37,20.10
2018,08,10,01,38,20.00
2018,08,10,01,39,20.00
2018,08,10,01,40,20.00
2018,08,10,01,41,20.00
2018,08,10,01,42,20.00
2018,08,10,01,43,20.00
2018,08,10,01,44,20.00
2018,08,10,01,45,19.90
2018,08,10,01,46,19.90
2018,08,10,01,47,19.90
2018,08,10,01,48,19.90
2018,08,10,01,49,19.90
2018,08,10,01,50,19.80
2018,08,10,01,51,19.80
2018,08,10,01,52,19.80
2018,08,10,01,53,19.80
2018,08,10,01,54,19.80
2018,08,10,01,55,19.70
2018,08,10,01,56,19.70
2018,08,10,01,57,19.60
2018,08,10,01,58,19.60
2018,08,10,01,59,19.50
2018,08,10,02,00,19.50
2018,08,10,02,01,19.40
2018,08,10,02,02,19.40
2018,08,10,02,03,19.30
2018,08,10,02,04,19.30
2018,08,10,02,05,19.30
2018,08,10,02,06,19.20
2018,08,10,02,07,19.20
2018,08,10,02,08,19.20
2018,08,10,02,09,19.20
2018,08,10,02,10,19.20
2018,08,10,02,11,19.10
2018,08,10,02,12,19.10
2018,08,10,02,13,19.10
2018,08,10,02,14,19.10
2018,08,10,02,15,19.00
2018,08,10,02,16,18.90
2018,08,10,02,17,18.90
2018,08,10,02,18,18.80
2018,08,10,02,19,18.80
2018,08,10,02,20,18.80
2018,08,10,02,21,18.70
2018,08,10,02,22,18.70
2018,08,10,02,23,18.60
2018,08,10,02,24,18.60
2018,08,10,02,25,18.50
2018,08,10,02,26,18.50
2018,08,10,02,27,18.50
2018,08,10,02,28,18.40
2018,08,10,02,29,18.40
2018,08,10,02,30,18.40
2018,08,10,02,31,18.30
2018,08,10,02,32,18.30
2018,08,10,02,33,18.30
2018,08,10,02,34,18.30
2018,08,10,02,35,18.30
2018,08,10,02,36,18.30
2018,08,10,02,37,18.30
2018,08,10,02,38,18.30
2018,08,10,02,39,18.20
2018,08,10,02,40,18.20
2018,08,10,02,41,18.20
2018,08,10,02,42,18.20
2018,08,10,02,43,18.20
2018,08,10,02,44,18.20
2018,08,10,02,45,18.20
2018,08,10,02,46,18.20
2018,08,10,02,47,18.10
2018,08,10,02,48,18.10
2018,08,10,02,49,18.10
2018,08,10,02,50,18.20
2018,08,10,02,51,18.20
2018,08,10,02,52,18.20
2018,08,10,02,53,18.20
2018,08,10,02,54,18.20
2018,08,10,02,55,18.30
2018,08,10,02,56,18.30
2018,08,10,02,57,18.30
2018,08,10,02,58,18.30
2018,08,10,02,59,18.30
2018,08,10,03,00,18.30
2018,08,10,03,01,18.30
2018,08,10,03,02,18.30
2018,08,10,03,03,18.30
2018,08,10,03,04,18.40
2018,08,10,03,05,18.40
2018,08,10,03,06,18.40
2018,08,10,03,07,18.40
2018,08,10,03,08,18.30
2018,08,10,03,09,18.30
2018,08,10,03,10,18.30
2018,08,10,03,11,18.30
2018,08,10,03,12,18.20
2018,08,10,03,13,18.20
2018,08,10,03,14,18.20
2018,08,10,03,15,18.10
2018,08,10,03,16,18.10
2018,08,10,03,17,18.00
2018,08,10,03,18,18.00
2018,08,10,03,19,17.90
2018,08,10,03,20,17.90
2018,08,10,03,21,17.80
2018,08,10,03,22,17.80
2018,08,10,03,23,17.70
2018,08,10,03,24,17.70
2018,08,10,03,25,17.60
2018,08,10,03,26,17.60
2018,08,10,03,27,17.60
2018,08,10,03,28,17.50
2018,08,10,03,29,17.40
2018,08,10,03,30,17.40
2018,08,10,03,31,17.40
2018,08,10,03,32,17.30
2018,08,10,03,33,17.30
2018,08,10,03,34,17.30
2018,08,10,03,35,17.30
2018,08,10,03,36,17.30
2018,08,10,03,37,17.30
2018,08,10,03,38,17.30
2018,08,10,03,39,17.30
2018,08,10,03,40,17.30
2018,08,10,03,41,17.30
2018,08,10,03,42,17.30
2018,08,10,03,43,17.30
2018,08,10,03,44,17.30
2018,08,10,03,45,17.30
2018,08,10,03,46,17.30
2018,08,10,03,47,17.30
2018,08,10,03,48,17.30
2018,08,10,03,49,17.20
2018,08,10,03,50,17.20
2018,08,10,03,51,17.20
2018,08,10,03,52,17.20
2018,08,10,03,53,17.20
2018,08,10,03,54,17.20
2018,08,10,03,55,17.10
2018,08,10,03,56,17.10
2018,08,10,03,57,17.10
2018,08,10,03,58,17.00
2018,08,10,03,59,17.00
2018,08,10,04,00,17.00
2018,08,10,04,01,16.90
2018,08,10,04,02,16.90
2018,08,10,04,03,16.90
2018,08,10,04,04,16.80
2018,08,10,04,05,16.80
2018,08,10,04,06,16.80
2018,08,10,04,07,16.70
2018,08,10,04,08,16.70
2018,08,10,04,09,16.70
2018,08,10,04,10,16.60
2018,08,10,04,11,16.60
2018,08,10,04,12,16.60
2018,08,10,04,13,16.50
2018,08,10,04,14,16.50
2018,08,10,04,15,16.40
2018,08,10,04,16,16.40
2018,08,10,04,17,16.40
2018,08,10,04,18,16.30
2018,08,10,04,19,16.30
2018,08,10,04,20,16.30
2018,08,10,04,21,16.30
2018,08,10,04,22,16.20
2018,08,10,04,23,16.20
2018,08,10,04,24,16.20
2018,08,10,04,25,16.20
2018,08,10,04,26,16.20
2018,08,10,04,27,16.20
2018,08,10,04,28,16.20
2018,08,10,04,29,16.20
2018,08,10,04,30,16.20
2018,08,10,04,31,16.20
2018,08,10,04,32,16.30
2018,08,10,04,33,16.30
2018,08,10,04,34,16.30
2018,08,10,04,35,16.20
2018,08,10,04,36,16.30
2018,08,10,04,37,16.20
2018,08,10,04,38,16.20
2018,08,10,04,39,16.20
2018,08,10,04,40,16.20
2018,08,10,04,41,16.20
2018,08,10,04,42,16.20
2018,08,10,04,43,16.20
2018,08,10,04,44,16.20
2018,08,10,04,45,16.20
2018,08,10,04,46,16.10
2018,08,10,04,47,16.10
2018,08,10,04,48,16.10
2018,08,10,04,49,16.10
2018,08,10,04,50,16.10
2018,08,10,04,51,16.10
2018,08,10,04,52,16.00
2018,08,10,04,53,16.00
2018,08,10,04,54,16.00
2018,08,10,04,55,16.00
2018,08,10,04,56,16.00
2018,08,10,04,57,15.90
2018,08,10,04,58,15.90
2018,08,10,04,59,15.90
2018,08,10,05,00,15.90
2018,08,10,05,01,15.90
2018,08,10,05,02,15.90
2018,08,10,05,03,15.90
2018,08,10,05,04,15.90
2018,08,10,05,05,15.90
2018,08,10,05,06,15.90
2018,08,10,05,07,15.90
2018,08,10,05,08,15.90
2018,08,10,05,09,15.80
2018,08,10,05,10,15.80
2018,08,10,05,11,15.80
2018,08,10,05,12,15.80
2018,08,10,05,13,15.80
2018,08,10,05,14,15.80
2018,08,10,05,15,15.80
2018,08,10,05,16,15.80
2018,08,10,05,17,15.80
2018,08,10,05,18,15.70
2018,08,10,05,19,15.70
2018,08,10,05,20,15.70
2018,08,10,05,21,15.70
2018,08,10,05,22,15.70
2018,08,10,05,23,15.70
2018,08,10,05,24,15.70
2018,08,10,05,25,15.70
2018,08,10,05,26,15.70
2018,08,10,05,27,15.70
2018,08,10,05,28,15.70
2018,08,10,05,29,15.70
2018,08,10,05,30,15.60
2018,08,10,05,31,15.60
2018,08,10,05,32,15.60
2018,08,10,05,33,15.60
2018,08,10,05,34,15.60
2018,08,10,05,35,15.60
2018,08,10,05,36,15.60
2018,08,10,05,37,15.60
2018,08,10,05,38,15.60
2018,08,10,05,39,15.60
2018,08,10,05,40,15.60
2018,08,10,05,41,15.60
2018,08,10,05,42,15.60
2018,08,10,05,43,15.60
2018,08,10,05,44,15.60
2018,08,10,05,45,15.50
2018,08,10,05,46,15.50
2018,08,10,05,47,15.50
2018,08,10,05,48,15.50
2018,08,10,05,49,15.50
2018,08,10,05,50,15.50
2018,08,10,05,51,15.50
2018,08,10,05,52,15.40
2018,08,10,05,53,15.40
2018,08,10,05,54,15.40
2018,08,10,05,55,15.40
2018,08,10,05,56,15.40
2018,08,10,05,57,15.50
2018,08,10,05,58,15.50
2018,08,10,05,59,15.60
2018,08,10,06,00,15.60
2018,08,10,06,01,15.60
2018,08,10,06,02,15.60
2018,08,10,06,03,15.60
2018,08,10,06,04,15.60
2018,08,10,06,05,15.60
2018,08,10,06,06,15.70
2018,08,10,06,07,15.70
2018,08,10,06,08,15.70
2018,08,10,06,09,15.80
2018,08,10,06,10,15.80
2018,08,10,06,11,15.80
2018,08,10,06,12,15.90
2018,08,10,06,13,15.90
2018,08,10,06,14,15.90
2018,08,10,06,15,15.90
2018,08,10,06,16,15.90
2018,08,10,06,17,15.90
2018,08,10,06,18,15.90
2018,08,10,06,19,15.90
2018,08,10,06,20,16.00
2018,08,10,06,21,16.00
2018,08,10,06,22,16.00
2018,08,10,06,23,16.10
2018,08,10,06,24,16.10
2018,08,10,06,25,16.10
2018,08,10,06,26,16.10
2018,08,10,06,27,16.10
2018,08,10,06,28,16.20
2018,08,10,06,29,16.20
2018,08,10,06,30,16.20
2018,08,10,06,31,16.20
2018,08,10,06,32,16.20
2018,08,10,06,33,16.20
2018,08,10,06,34,16.20
2018,08,10,06,35,16.20
2018,08,10,06,36,16.20
2018,08,10,06,37,16.20
2018,08,10,06,38,16.20
2018,08,10,06,39,16.20
2018,08,10,06,40,16.20
2018,08,10,06,41,16.20
2018,08,10,06,42,16.20
2018,08,10,06,43,16.20
2018,08,10,06,44,16.20
2018,08,10,06,45,16.20
2018,08,10,06,46,16.20
2018,08,10,06,47,16.30
2018,08,10,06,48,16.30
2018,08,10,06,49,16.30
2018,08,10,06,50,16.30
2018,08,10,06,51,16.40
2018,08,10,06,52,16.40
2018,08,10,06,53,16.40
2018,08,10,06,54,16.50
2018,08,10,06,55,16.50
2018,08,10,06,56,16.60
2018,08,10,06,57,16.60
2018,08,10,06,58,16.70
2018,08,10,06,59,16.70
2018,08,10,07,00,16.70
2018,08,10,07,01,16.80
2018,08,10,07,02,16.80
2018,08,10,07,03,16.80
2018,08,10,07,04,16.90
2018,08,10,07,05,16.90
2018,08,10,07,06,17.00
2018,08,10,07,07,17.00
2018,08,10,07,08,17.00
2018,08,10,07,09,17.10
2018,08,10,07,10,17.10
2018,08,10,07,11,17.20
2018,08,10,07,12,17.20
2018,08,10,07,13,17.20
2018,08,10,07,14,17.20
2018,08,10,07,15,17.30
2018,08,10,07,16,17.30
2018,08,10,07,17,17.30
2018,08,10,07,18,17.40
2018,08,10,07,19,17.40
2018,08,10,07,20,17.40
2018,08,10,07,21,17.50
2018,08,10,07,22,17.50
2018,08,10,07,23,17.60
2018,08,10,07,24,17.60
2018,08,10,07,25,17.70
2018,08,10,07,26,17.80
2018,08,10,07,27,17.80
2018,08,10,07,28,17.90
2018,08,10,07,29,17.90
2018,08,10,07,30,17.90
2018,08,10,07,31,18.00
2018,08,10,07,32,18.10
2018,08,10,07,33,18.10
2018,08,10,07,34,18.20
2018,08,10,07,35,18.20
2018,08,10,07,36,18.20
2018,08,10,07,37,18.30
2018,08,10,07,38,18.30
2018,08,10,07,39,18.40
2018,08,10,07,40,18.40
2018,08,10,07,41,18.40
2018,08,10,07,42,18.50
2018,08,10,07,43,18.50
2018,08,10,07,44,18.50
2018,08,10,07,45,18.60
2018,08,10,07,46,18.60
2018,08,10,07,47,18.60
2018,08,10,07,48,18.60
2018,08,10,07,49,18.60
2018,08,10,07,50,18.70
2018,08,10,07,51,18.70
2018,08,10,07,52,18.70
2018,08,10,07,53,18.70
2018,08,10,07,54,18.80
2018,08,10,07,55,18.80
2018,08,10,07,56,18.80
2018,08,10,07,57,18.90
2018,08,10,07,58,18.90
2018,08,10,07,59,18.90
2018,08,10,08,00,19.00
2018,08,10,08,01,19.10
2018,08,10,08,02,19.10
2018,08,10,08,03,19.20
2018,08,10,08,04,19.20
2018,08,10,08,05,19.20
2018,08,10,08,06,19.30
2018,08,10,08,07,19.30
2018,08,10,08,08,19.30
2018,08,10,08,09,19.40
2018,08,10,08,10,19.40
2018,08,10,08,11,19.50
2018,08,10,08,12,19.60
2018,08,10,08,13,19.60
2018,08,10,08,14,19.70
2018,08,10,08,15,19.70
2018,08,10,08,16,19.70
2018,08,10,08,17,19.80
2018,08,10,08,18,19.80
2018,08,10,08,19,19.90
2018,08,10,08,20,19.90
2018,08,10,08,21,20.00
2018,08,10,08,22,20.10
2018,08,10,08,23,20.10
2018,08,10,08,24,20.20
2018,08,10,08,25,20.20
2018,08,10,08,26,20.20
2018,08,10,08,27,20.20
2018,08,10,08,28,20.20
2018,08,10,08,29,20.20
2018,08,10,08,30,20.30
2018,08,10,08,31,20.30
2018,08,10,08,32,20.30
2018,08,10,08,33,20.30
2018,08,10,08,34,20.30
2018,08,10,08,35,20.30
2018,08,10,08,36,20.30
2018,08,10,08,37,20.20
2018,08,10,08,38,20.20
2018,08,10,08,39,20.20
2018,08,10,08,40,20.20
2018,08,10,08,41,20.20
2018,08,10,08,42,20.30
2018,08,10,08,43,20.30
2018,08,10,08,44,20.30
2018,08,10,08,45,20.30
2018,08,10,08,46,20.30
2018,08,10,08,47,20.30
2018,08,10,08,48,20.30
2018,08,10,08,49,20.30
2018,08,10,08,50,20.20
2018,08,10,08,51,20.20
2018,08,10,08,52,20.20
2018,08,10,08,53,20.20
2018,08,10,08,54,20.20
2018,08,10,08,55,20.20
2018,08,10,08,56,20.20
2018,08,10,08,57,20.20
2018,08,10,08,58,20.20
2018,08,10,08,59,20.20
2018,08,10,09,00,20.20
2018,08,10,09,01,20.20
2018,08,10,09,02,20.30
2018,08,10,09,03,20.30
2018,08,10,09,04,20.30
2018,08,10,09,05,20.40
2018,08,10,09,06,20.40
2018,08,10,09,07,20.50
2018,08,10,09,08,20.60
2018,08,10,09,09,20.60
2018,08,10,09,10,20.60
2018,08,10,09,11,20.70
2018,08,10,09,12,20.70
2018,08,10,09,13,20.70
2018,08,10,09,14,20.80
2018,08,10,09,15,20.80
2018,08,10,09,16,20.90
2018,08,10,09,17,20.90
2018,08,10,09,18,21.00
2018,08,10,09,19,21.00
2018,08,10,09,20,21.10
2018,08,10,09,21,21.10
2018,08,10,09,22,21.20
2018,08,10,09,23,21.20
2018,08,10,09,24,21.20
2018,08,10,09,25,21.30
2018,08,10,09,26,21.30
2018,08,10,09,27,21.40
2018,08,10,09,28,21.40
2018,08,10,09,29,21.50
2018,08,10,09,30,21.60
2018,08,10,09,31,21.60
2018,08,10,09,32,21.60
2018,08,10,09,33,21.60
2018,08,10,09,34,21.60
2018,08,10,09,35,21.60
2018,08,10,09,36,21.60
2018,08,10,09,37,21.60
2018,08,10,09,38,21.50
2018,08,10,09,39,21.50
2018,08,10,09,40,21.40
2018,08,10,09,41,21.40
2018,08,10,09,42,21.40
2018,08,10,09,43,21.40
2018,08,10,09,44,21.50
2018,08,10,09,45,21.50
2018,08,10,09,46,21.60
2018,08,10,09,47,21.60
2018,08,10,09,48,21.60
2018,08,10,09,49,21.60
2018,08,10,09,50,21.60
2018,08,10,09,51,21.60
2018,08,10,09,52,21.70
2018,08,10,09,53,21.70
2018,08,10,09,54,21.80
2018,08,10,09,55,21.80
2018,08,10,09,56,21.90
2018,08,10,09,57,21.90
2018,08,10,09,58,21.90
2018,08,10,09,59,22.00
2018,08,10,10,00,22.00
2018,08,10,10,01,22.00
2018,08,10,10,02,22.00
2018,08,10,10,03,22.00
2018,08,10,10,04,22.00
2018,08,10,10,05,22.00
2018,08,10,10,06,22.00
2018,08,10,10,07,22.10
2018,08,10,10,08,22.10
2018,08,10,10,09,22.20
2018,08,10,10,10,22.20
2018,08,10,10,11,22.20
2018,08,10,10,12,22.20
2018,08,10,10,13,22.20
2018,08,10,10,14,22.30
2018,08,10,10,15,22.40
2018,08,10,10,16,22.40
2018,08,10,10,17,22.50
2018,08,10,10,18,22.50
2018,08,10,10,19,22.60
2018,08,10,10,20,22.60
2018,08,10,10,21,22.60
2018,08,10,10,22,22.70
2018,08,10,10,23,22.80
2018,08,10,10,24,22.80
2018,08,10,10,25,22.90
2018,08,10,10,26,22.90
2018,08,10,10,27,23.00
2018,08,10,10,28,23.10
2018,08,10,10,29,23.20
2018,08,10,10,30,23.30
2018,08,10,10,31,23.40
2018,08,10,10,32,23.40
2018,08,10,10,33,23.50
2018,08,10,10,34,23.50
2018,08,10,10,35,23.60
2018,08,10,10,36,23.70
2018,08,10,10,37,23.70
2018,08,10,10,38,23.70
2018,08,10,10,39,23.70
2018,08,10,10,40,23.80
2018,08,10,10,41,23.90
2018,08,10,10,42,23.90
2018,08,10,10,43,24.00
2018,08,10,10,44,24.10
2018,08,10,10,45,24.10
2018,08,10,10,46,24.10
2018,08,10,10,47,24.10
2018,08,10,10,48,24.00
2018,08,10,10,49,24.10
2018,08,10,10,50,24.00
2018,08,10,10,51,24.10
2018,08,10,10,52,24.10
2018,08,10,10,53,24.10
2018,08,10,10,54,24.20
2018,08,10,10,55,24.30
2018,08,10,10,56,24.30
2018,08,10,10,57,24.40
2018,08,10,10,58,24.50
2018,08,10,10,59,24.50
2018,08,10,11,00,24.60
2018,08,10,11,01,24.60
2018,08,10,11,02,24.60
2018,08,10,11,03,24.70
2018,08,10,11,04,24.70
2018,08,10,11,05,24.80
2018,08,10,11,06,24.80
2018,08,10,11,07,24.90
2018,08,10,11,08,24.90
2018,08,10,11,09,24.90
2018,08,10,11,10,24.90
2018,08,10,11,11,25.00
2018,08,10,11,12,25.10
2018,08,10,11,13,25.10
2018,08,10,11,14,25.20
2018,08,10,11,15,25.20
2018,08,10,11,16,25.10
2018,08,10,11,17,25.10
2018,08,10,11,18,25.10
2018,08,10,11,19,25.10
2018,08,10,11,20,25.10
2018,08,10,11,21,25.10
2018,08,10,11,22,25.20
2018,08,10,11,23,25.20
2018,08,10,11,24,25.20
2018,08,10,11,25,25.30
2018,08,10,11,26,25.30
2018,08,10,11,27,25.30
2018,08,10,11,28,25.40
2018,08,10,11,29,25.50
2018,08,10,11,30,25.60
2018,08,10,11,31,25.60
2018,08,10,11,32,25.70
2018,08,10,11,33,25.70
2018,08,10,11,34,25.70
2018,08,10,11,35,25.70
2018,08,10,11,36,25.70
2018,08,10,11,37,25.60
2018,08,10,11,38,25.50
2018,08,10,11,39,25.40
2018,08,10,11,40,25.40
2018,08,10,11,41,25.30
2018,08,10,11,42,25.30
2018,08,10,11,43,25.30
2018,08,10,11,44,25.20
2018,08,10,11,45,25.30
2018,08,10,11,46,25.30
2018,08,10,11,47,25.40
2018,08,10,11,48,25.50
2018,08,10,11,49,25.60
2018,08,10,11,50,25.70
2018,08,10,11,51,25.80
2018,08,10,11,52,25.80
2018,08,10,11,53,25.90
2018,08,10,11,54,26.00
2018,08,10,11,55,26.10
2018,08,10,11,56,26.10
2018,08,10,11,57,26.20
2018,08,10,11,58,26.20
2018,08,10,11,59,26.20
2018,08,10,12,00,26.30
2018,08,10,12,01,26.40
2018,08,10,12,02,26.50
2018,08,10,12,03,26.50
2018,08,10,12,04,26.50
2018,08,10,12,05,26.40
2018,08,10,12,06,26.50
2018,08,10,12,07,26.50
2018,08,10,12,08,26.50
2018,08,10,12,09,26.50
2018,08,10,12,10,26.50
2018,08,10,12,11,26.50
2018,08,10,12,12,26.50
2018,08,10,12,13,26.50
2018,08,10,12,14,26.60
2018,08,10,12,15,26.60
2018,08,10,12,16,26.60
2018,08,10,12,17,26.50
2018,08,10,12,18,26.50
2018,08,10,12,19,26.50
2018,08,10,12,20,26.50
2018,08,10,12,21,26.50
2018,08,10,12,22,26.60
2018,08,10,12,23,26.70
2018,08,10,12,24,26.80
2018,08,10,12,25,26.80
2018,08,10,12,26,26.70
2018,08,10,12,27,26.70
2018,08,10,12,28,26.70
2018,08,10,12,29,26.70
2018,08,10,12,30,26.80
2018,08,10,12,31,26.90
2018,08,10,12,32,27.10
2018,08,10,12,33,27.20
2018,08,10,12,34,27.30
2018,08,10,12,35,27.50
2018,08,10,12,36,27.60
2018,08,10,12,37,27.70
2018,08,10,12,38,27.70
2018,08,10,12,39,27.70
2018,08,10,12,40,27.60
2018,08,10,12,41,27.60
2018,08,10,12,42,27.50
2018,08,10,12,43,27.50
2018,08,10,12,44,27.40
2018,08,10,12,45,27.40
2018,08,10,12,46,27.50
2018,08,10,12,47,27.60
2018,08,10,12,48,27.70
2018,08,10,12,49,27.80
2018,08,10,12,50,27.80
2018,08,10,12,51,27.90
2018,08,10,12,52,27.90
2018,08,10,12,53,28.00
2018,08,10,12,54,28.10
2018,08,10,12,55,28.20
2018,08,10,12,56,28.30
2018,08,10,12,57,28.30
2018,08,10,12,58,28.30
2018,08,10,12,59,28.30
2018,08,10,13,00,28.30
2018,08,10,13,01,28.30
2018,08,10,13,02,28.20
2018,08,10,13,03,28.20
2018,08,10,13,04,28.20
2018,08,10,13,05,28.20
2018,08,10,13,06,28.30
2018,08,10,13,07,28.30
2018,08,10,13,08,28.30
2018,08,10,13,09,28.30
2018,08,10,13,10,28.30
2018,08,10,13,11,28.30
2018,08,10,13,12,28.30
2018,08,10,13,13,28.40
2018,08,10,13,14,28.40
2018,08,10,13,15,28.40
2018,08,10,13,16,28.50
2018,08,10,13,17,28.60
2018,08,10,13,18,28.60
2018,08,10,13,19,28.70
2018,08,10,13,20,28.70
2018,08,10,13,21,28.60
2018,08,10,13,22,28.60
2018,08,10,13,23,28.50
2018,08,10,13,24,28.50
2018,08,10,13,25,28.50
2018,08,10,13,26,28.60
2018,08,10,13,27,28.60
2018,08,10,13,28,28.60
2018,08,10,13,29,28.60
2018,08,10,13,30,28.70
2018,08,10,13,31,28.70
2018,08,10,13,32,28.60
2018,08,10,13,33,28.60
2018,08,10,13,34,28.70
2018,08,10,13,35,28.70
2018,08,10,13,36,28.70
2018,08,10,13,37,28.70
2018,08,10,13,38,28.60
2018,08,10,13,39,28.60
2018,08,10,13,40,28.70
2018,08,10,13,41,28.70
2018,08,10,13,42,28.70
2018,08,10,13,43,28.70
2018,08,10,13,44,28.80
2018,08,10,13,45,28.80
2018,08,10,13,46,28.90
2018,08,10,13,47,28.90
2018,08,10,13,48,28.90
2018,08,10,13,49,28.90
2018,08,10,13,50,29.00
2018,08,10,13,51,29.00
2018,08,10,13,52,29.00
2018,08,10,13,53,28.90
2018,08,10,13,54,28.90
2018,08,10,13,55,29.00
2018,08,10,13,56,29.00
2018,08,10,13,57,29.10
2018,08,10,13,58,29.00
2018,08,10,13,59,29.00
2018,08,10,14,00,28.90
2018,08,10,14,01,28.80
2018,08,10,14,02,28.80
2018,08,10,14,03,28.80
2018,08,10,14,04,28.90
2018,08,10,14,05,28.90
2018,08,10,14,06,29.00
2018,08,10,14,07,29.10
2018,08,10,14,08,29.10
2018,08,10,14,09,29.10
2018,08,10,14,10,29.10
2018,08,10,14,11,29.10
2018,08,10,14,12,29.10
2018,08,10,14,13,29.10
2018,08,10,14,14,29.20
2018,08,10,14,15,29.20
2018,08,10,14,16,29.30
2018,08,10,14,17,29.30
2018,08,10,14,18,29.40
2018,08,10,14,19,29.40
2018,08,10,14,20,29.50
2018,08,10,14,21,29.60
2018,08,10,14,22,29.60
2018,08,10,14,23,29.50
2018,08,10,14,24,29.40
2018,08,10,14,25,29.50
2018,08,10,14,26,29.50
2018,08,10,14,27,29.60
2018,08,10,14,28,29.70
2018,08,10,14,29,29.80
2018,08,10,14,30,29.80
2018,08,10,14,31,29.80
2018,08,10,14,32,29.80
2018,08,10,14,33,29.80
2018,08,10,14,34,29.80
2018,08,10,14,35,29.70
2018,08,10,14,36,29.60
2018,08,10,14,37,29.60
2018,08,10,14,38,29.50
2018,08,10,14,39,29.50
2018,08,10,14,40,29.50
2018,08,10,14,41,29.50
2018,08,10,14,42,29.60
2018,08,10,14,43,29.60
2018,08,10,14,44,29.60
2018,08,10,14,45,29.60
2018,08,10,14,46,29.70
2018,08,10,14,47,29.80
2018,08,10,14,48,29.80
2018,08,10,14,49,29.90
2018,08,10,14,50,29.90
2018,08,10,14,51,29.90
2018,08,10,14,52,29.90
2018,08,10,14,53,29.90
2018,08,10,14,54,29.90
2018,08,10,14,55,29.90
2018,08,10,14,56,29.90
2018,08,10,14,57,29.90
2018,08,10,14,58,30.00
2018,08,10,14,59,30.10
2018,08,10,15,00,30.10
2018,08,10,15,01,30.20
2018,08,10,15,02,30.20
2018,08,10,15,03,30.20
2018,08,10,15,04,30.20
2018,08,10,15,05,30.30
2018,08,10,15,06,30.30
2018,08,10,15,07,30.30
2018,08,10,15,08,30.30
2018,08,10,15,09,30.40
2018,08,10,15,10,30.40
2018,08,10,15,11,30.40
2018,08,10,15,12,30.40
2018,08,10,15,13,30.30
2018,08,10,15,14,30.30
2018,08,10,15,15,30.30
2018,08,10,15,16,30.20
2018,08,10,15,17,30.20
2018,08,10,15,18,30.10
2018,08,10,15,19,30.00
2018,08,10,15,20,29.90
2018,08,10,15,21,29.90
2018,08,10,15,22,29.80
2018,08,10,15,23,29.70
2018,08,10,15,24,29.60
2018,08,10,15,25,29.50
2018,08,10,15,26,29.50
2018,08,10,15,27,29.40
2018,08,10,15,28,29.40
2018,08,10,15,29,29.40
2018,08,10,15,30,29.40
2018,08,10,15,31,29.30
2018,08,10,15,32,29.40
2018,08,10,15,33,29.40
2018,08,10,15,34,29.50
2018,08,10,15,35,29.50
2018,08,10,15,36,29.60
2018,08,10,15,37,29.60
2018,08,10,15,38,29.50
2018,08,10,15,39,29.50
2018,08,10,15,40,29.50
2018,08,10,15,41,29.50
2018,08,10,15,42,29.60
2018,08,10,15,43,29.70
2018,08,10,15,44,29.70
2018,08,10,15,45,29.70
2018,08,10,15,46,29.60
2018,08,10,15,47,29.60
2018,08,10,15,48,29.50
2018,08,10,15,49,29.50
2018,08,10,15,50,29.50
2018,08,10,15,51,29.50
2018,08,10,15,52,29.50
2018,08,10,15,53,29.50
2018,08,10,15,54,29.50
2018,08,10,15,55,29.40
2018,08,10,15,56,29.40
2018,08,10,15,57,29.40
2018,08,10,15,58,29.40
2018,08,10,15,59,29.40
2018,08,10,16,00,29.40
2018,08,10,16,01,29.40
2018,08,10,16,02,29.40
2018,08,10,16,03,29.40
2018,08,10,16,04,29.40
2018,08,10,16,05,29.30
2018,08,10,16,06,29.20
2018,08,10,16,07,29.10
2018,08,10,16,08,29.00
2018,08,10,16,09,28.90
2018,08,10,16,10,28.90
2018,08,10,16,11,28.80
2018,08,10,16,12,28.80
2018,08,10,16,13,28.70
2018,08,10,16,14,28.70
2018,08,10,16,15,28.60
2018,08,10,16,16,28.60
2018,08,10,16,17,28.70
2018,08,10,16,18,28.70
2018,08,10,16,19,28.70
2018,08,10,16,20,28.60
2018,08,10,16,21,28.60
2018,08,10,16,22,28.60
2018,08,10,16,23,28.60
2018,08,10,16,24,28.60
2018,08,10,16,25,28.50
2018,08,10,16,26,28.40
2018,08,10,16,27,28.30
2018,08,10,16,28,28.30
2018,08,10,16,29,28.20
2018,08,10,16,30,28.10
2018,08,10,16,31,28.10
2018,08,10,16,32,28.10
2018,08,10,16,33,28.10
2018,08,10,16,34,28.10
2018,08,10,16,35,28.00
2018,08,10,16,36,27.90
2018,08,10,16,37,27.90
2018,08,10,16,38,27.80
2018,08,10,16,39,27.80
2018,08,10,16,40,27.70
2018,08,10,16,41,27.60
2018,08,10,16,42,27.60
2018,08,10,16,43,27.50
2018,08,10,16,44,27.50
2018,08,10,16,45,27.50
2018,08,10,16,46,27.50
2018,08,10,16,47,27.50
2018,08,10,16,48,27.50
2018,08,10,16,49,27.50
2018,08,10,16,50,27.40
2018,08,10,16,51,27.40
2018,08,10,16,52,27.40
2018,08,10,16,53,27.30
2018,08,10,16,54,27.30
2018,08,10,16,55,27.30
2018,08,10,16,56,27.30
2018,08,10,16,57,27.30
2018,08,10,16,58,27.40
2018,08,10,16,59,27.40
2018,08,10,17,00,27.40
2018,08,10,17,01,27.50
2018,08,10,17,02,27.50
2018,08,10,17,03,27.60
2018,08,10,17,04,27.60
2018,08,10,17,05,27.60
2018,08,10,17,06,27.70
2018,08,10,17,07,27.70
2018,08,10,17,08,27.70
2018,08,10,17,09,27.70
2018,08,10,17,10,27.70
2018,08,10,17,11,27.60
2018,08,10,17,12,27.60
2018,08,10,17,13,27.60
2018,08,10,17,14,27.60
2018,08,10,17,15,27.50
2018,08,10,17,16,27.50
2018,08,10,17,17,27.50
2018,08,10,17,18,27.40
2018,08,10,17,19,27.40